TimeEET,TemperatureF,Dew PointF,Humidity,Sea Level PressureIn,VisibilityMPH,Wind Direction,Wind SpeedMPH,Gust SpeedMPH,PrecipitationIn,Events,Conditions,WindDirDegrees,DateUTC
12:20 AM,59.0,57.2,94,30.09,-9999.0,NE,4.6,-,N/A,,Clear,50,2012-10-28 22:20:00
12:50 AM,59.0,57.2,94,30.06,-9999.0,NNE,4.6,-,N/A,,Clear,30,2012-10-28 22:50:00
1:20 AM,59.0,57.2,94,30.06,-9999.0,NNW,2.3,-,N/A,,Clear,330,2012-10-28 23:20:00
1:50 AM,59.0,57.2,94,30.06,-9999.0,North,2.3,-,N/A,,Clear,360,2012-10-28 23:50:00
2:00 AM,59,57,92,30.08,6,North,2.3,,,,Clear,0,2012-10-29 00:00:00
2:20 AM,59.0,55.4,88,30.06,-9999.0,North,2.3,-,N/A,,Clear,360,2012-10-29 00:20:00
2:50 AM,60.8,55.4,82,30.06,-9999.0,North,2.3,-,N/A,,Clear,350,2012-10-29 00:50:00
3:20 AM,59.0,55.4,88,30.06,-9999.0,NW,2.3,-,N/A,,Clear,310,2012-10-29 01:20:00
3:50 AM,59.0,55.4,88,30.06,-9999.0,NW,2.3,-,N/A,,Clear,310,2012-10-29 01:50:00
4:20 AM,57.2,53.6,88,30.06,-9999.0,NE,1.2,-,N/A,,Clear,40,2012-10-29 02:20:00
4:50 AM,57.2,53.6,88,30.06,-9999.0,NE,3.5,-,N/A,,Clear,50,2012-10-29 02:50:00
5:20 AM,57.2,53.6,88,30.06,-9999.0,Calm,Calm,-,N/A,,Clear,0,2012-10-29 03:20:00
5:50 AM,57.2,55.4,94,30.06,-9999.0,NNW,1.2,-,N/A,,Clear,340,2012-10-29 03:50:00
6:20 AM,57.2,53.6,88,30.06,-9999.0,NNE,2.3,-,N/A,,Clear,20,2012-10-29 04:20:00
6:50 AM,59.0,55.4,88,30.06,-9999.0,NNE,5.8,-,N/A,,Clear,20,2012-10-29 04:50:00
7:20 AM,60.8,57.2,88,30.06,-9999.0,NW,2.3,-,N/A,,Clear,320,2012-10-29 05:20:00
7:50 AM,62.6,57.2,82,30.06,-9999.0,NW,2.3,-,N/A,,Clear,310,2012-10-29 05:50:00
8:00 AM,63,57,74,30.06,6,NW,2.3,,,,Clear,310,2012-10-29 06:00:00
8:20 AM,66.2,57.2,73,30.06,-9999.0,NNW,2.3,-,N/A,,Clear,330,2012-10-29 06:20:00
8:50 AM,68.0,55.4,64,30.06,-9999.0,North,3.5,-,N/A,,Clear,350,2012-10-29 06:50:00
9:20 AM,71.6,55.4,57,30.04,-9999.0,North,5.8,-,N/A,,Clear,10,2012-10-29 07:20:00
9:50 AM,73.4,51.8,47,30.04,-9999.0,North,5.8,-,N/A,,Clear,360,2012-10-29 07:50:00
10:20 AM,75.2,50.0,41,30.04,-9999.0,North,5.8,-,N/A,,Clear,360,2012-10-29 08:20:00
10:50 AM,77.0,48.2,36,30.04,-9999.0,NNE,5.8,-,N/A,,Clear,30,2012-10-29 08:50:00
11:20 AM,77.0,48.2,36,30.04,-9999.0,ENE,3.5,-,N/A,,Clear,60,2012-10-29 09:20:00
11:50 AM,78.8,48.2,34,30.06,-9999.0,East,5.8,-,N/A,,Clear,80,2012-10-29 09:50:00
12:20 PM,80.6,46.4,30,29.98,-9999.0,SW,5.8,-,N/A,,Clear,220,2012-10-29 10:20:00
12:50 PM,80.6,46.4,30,29.98,-9999.0,SE,5.8,-,N/A,,Clear,140,2012-10-29 10:50:00
1:20 PM,80.6,44.6,28,29.98,-9999.0,South,2.3,-,N/A,,Clear,170,2012-10-29 11:20:00
1:50 PM,80.6,42.8,26,29.98,-9999.0,SSW,2.3,-,N/A,,Clear,210,2012-10-29 11:50:00
2:00 PM,81,44,17,29.98,6,SSW,2.3,,,,Clear,210,2012-10-29 12:00:00
2:20 PM,80.6,44.6,28,29.98,-9999.0,SW,2.3,-,N/A,,Clear,220,2012-10-29 12:20:00
2:50 PM,80.6,42.8,26,29.98,-9999.0,WNW,2.3,-,N/A,,Clear,290,2012-10-29 12:50:00
3:20 PM,80.6,44.6,28,29.95,-9999.0,NNW,2.3,-,N/A,,Clear,330,2012-10-29 13:20:00
3:50 PM,78.8,44.6,30,29.95,-9999.0,NW,2.3,-,N/A,,Clear,320,2012-10-29 13:50:00
4:20 PM,78.8,44.6,30,29.95,-9999.0,East,2.3,-,N/A,,Clear,90,2012-10-29 14:20:00
4:50 PM,75.2,46.4,36,29.95,-9999.0,East,2.3,-,N/A,,Clear,100,2012-10-29 14:50:00
5:20 PM,71.6,44.6,38,29.95,-9999.0,Calm,Calm,-,N/A,,Clear,0,2012-10-29 15:20:00
5:50 PM,66.2,53.6,64,29.95,-9999.0,ENE,4.6,-,N/A,,Clear,70,2012-10-29 15:50:00
6:20 PM,62.6,55.4,77,29.98,-9999.0,NE,5.8,-,N/A,,Clear,40,2012-10-29 16:20:00
6:50 PM,60.8,55.4,82,29.98,-9999.0,NE,5.8,-,N/A,,Clear,40,2012-10-29 16:50:00
7:20 PM,60.8,53.6,77,29.95,-9999.0,North,9.2,-,N/A,,Clear,360,2012-10-29 17:20:00
7:50 PM,59.0,53.6,82,29.98,-9999.0,North,10.4,-,N/A,,Clear,360,2012-10-29 17:50:00
8:00 PM,59,53,74,29.97,6,North,10.4,,,,Clear,0,2012-10-29 18:00:00
8:20 PM,59.0,51.8,77,29.98,-9999.0,North,9.2,-,N/A,,Clear,360,2012-10-29 18:20:00
8:50 PM,59.0,51.8,77,29.95,-9999.0,North,3.5,-,N/A,,Clear,10,2012-10-29 18:50:00
9:20 PM,59.0,51.8,77,29.95,-9999.0,NE,4.6,-,N/A,,Clear,40,2012-10-29 19:20:00
9:50 PM,59.0,50.0,72,29.95,-9999.0,NNE,3.5,-,N/A,,Clear,20,2012-10-29 19:50:00
10:20 PM,59.0,50.0,72,29.95,-9999.0,NE,6.9,-,N/A,,Clear,40,2012-10-29 20:20:00
10:50 PM,57.2,51.8,82,29.95,-9999.0,NE,8.1,-,N/A,,Clear,50,2012-10-29 20:50:00
11:20 PM,55.4,50.0,82,29.95,-9999.0,NNE,4.6,-,N/A,,Clear,30,2012-10-29 21:20:00
11:50 PM,59.0,50.0,72,29.95,-9999.0,NE,4.6,-,N/A,,Clear,40,2012-10-29 21:50:00